Regional Weather Roundup
Issued by NWS

Home | Current Version | Previous Version | Graphics & Text | Print | Product List | Glossary Off
Versions: 1 2 3 4 5 6 7 8 9 10 11 12 13 14 15 16 17 18 19 20 21 22 23 24 25 26 27 28 29 30 31 32 33 34 35 36 37 38 39 40 41 42 43 44 45 46 47 48 49 50

000
ASUS43 KMKX 040000
RWRWI

WISCONSIN REGIONAL WEATHER ROUNDUP
NATIONAL WEATHER SERVICE MILWAUKEE/SULLIVAN WI
700 PM CDT TUE MAY 03 2016

NOTE: "FAIR" INDICATES FEW OR NO CLOUDS BELOW 12,000 FEET WITH NO
SIGNIFICANT WEATHER AND/OR OBSTRUCTIONS TO VISIBILITY.

WIZ001-002-006>008-014>016-023>028-040100-
NORTHWEST WISCONSIN

CITY           SKY/WX    TMP DP  RH WIND       PRES   REMARKS
SUPERIOR ARPT  SUNNY     66  30  26 N17G23    29.70R
ASHLAND        MOSUNNY   57  38  48 NE12      29.71R
6HR MIN TEMP:  55; 6HR MAX TEMP:  69;

HAYWARD        PTSUNNY   63  28  26 N18G29    29.68R
6HR MIN TEMP:  60; 6HR MAX TEMP:  67; 6HR PCP:  0.01;

SIREN          SUNNY     68  17  14 NW12G23   29.68R
CUMBERLAND     MOSUNNY   63  30  29 N18G25    29.66S
RICE LAKE      SUNNY     67  31  25 N18       29.66S
CHETEK         SUNNY     61  48  60 NE5       29.65S
LADYSMITH      SUNNY     57  47  70 E6        29.67F
EAU CLAIRE     LGT RAIN  55  48  76 CALM      29.64S
MENOMONIE      PTSUNNY   64  38  37 W15G25    29.64S
NEW RICHMOND   MOSUNNY   69  37  31 NW13      29.66R
OSCEOLA        MOSUNNY   70  31  23 NW14G20   29.68S
$$

WIZ003>005-009-010-017-018-040100-
NORTH CENTRAL WISCONSIN

CITY           SKY/WX    TMP DP  RH WIND       PRES   REMARKS
MANITOWISH WTR MOSUNNY   53  37  55 N12G20    29.68R
ARBOR VITAE    PTSUNNY   55  45  68 N10G18    29.68R
WOODRUFF       PTSUNNY   55  45  68 N10G18    29.68R
RHINELANDER    CLOUDY    51  43  74 W5        29.68F
6HR MIN TEMP:  50; 6HR MAX TEMP:  63; 6HR PCP:  0.10;

EAGLE RIVER    CLOUDY    50  42  73 NE6       29.69R
LAND O LAKES   PTSUNNY   51  41  67 N9        29.69F
PHILLIPS       MOSUNNY   51  47  86 CALM      29.67R
TOMAHAWK       CLOUDY    47  44  90 CALM      29.69F FOG
MEDFORD        LGT RAIN  48  47  97 E3        29.67S
MERRILL        RAIN      48  47  94 N14G32    29.73R VSB 1
$$

WIZ029-030-035-036-043>047-040100-
CENTRAL WISCONSIN

CITY           SKY/WX    TMP DP  RH WIND       PRES   REMARKS
WAUSAU         LGT RAIN  54  47  77 N9        29.69R
6HR MIN TEMP:  53; 6HR MAX TEMP:  70; 6HR PCP:  0.04;

MOSINEE        CLOUDY    52  46  82 CALM      29.69R
MARSHFIELD     TSTM      56  44  64 N24G38    29.69R
6HR MIN TEMP:  56; 6HR MAX TEMP:  70; 6HR PCP:  0.01;

STEVENS POINT  PTSUNNY   57  39  50 S3        29.66F
WAUPACA        DRIZZLE   62  38  40 W13G21    29.68S
WAUTOMA        LGT RAIN  61  41  47 W15G26    29.68S
6HR MIN TEMP:  61; 6HR MAX TEMP:  71;

WISC RAPIDS    CLOUDY    61  37  41 SW5       29.65F
6HR MIN TEMP:  61; 6HR MAX TEMP:  70; 6HR PCP: TRACE;

CAMP DOUGLAS   NOT AVBL
$$

WIZ011>013-019>022-031-037>040-048>050-040100-
NORTHEAST WISCONSIN

CITY           SKY/WX    TMP DP  RH WIND       PRES   REMARKS
ANTIGO         CLOUDY    50  47  92 N9        29.70R
SHAWANO        LGT RAIN  55  46  74 NW5       29.70R
OCONTO         CLOUDY    55  47  73 NW5       29.68S
STURGEON BAY   CLOUDY    52  45  76 N10       29.71F
6HR MIN TEMP:  52; 6HR MAX TEMP:  68;

GREEN BAY      CLOUDY    58  42  55 NW25G35   29.70R
6HR MIN TEMP:  58; 6HR MAX TEMP:  70;

MANITOWOC      NOT AVBL
APPLETON       CLOUDY   N/A N/A N/A W10       29.67R
CLINTONVILLE   LGT RAIN  55  43  62 N3        29.68F
OSHKOSH        LGT RAIN  63  37  38 W12       29.68R
6HR MIN TEMP:  63; 6HR MAX TEMP:  69; 6HR PCP: TRACE;

$$

WIZ032>034-041-042-053>061-040100-
SOUTHWEST WISCONSIN

CITY           SKY/WX    TMP DP  RH WIND       PRES   REMARKS
LA CROSSE      PTSUNNY   69  38  32 W12       29.65F
6HR MIN TEMP:  67; 6HR MAX TEMP:  72;

SPARTA         CLOUDY    66  37  34 W10G16    29.67F
VIROQUA        PTSUNNY   64  34  32 W17G28    29.70F
BOSCOBEL       LGT RAIN  68  37  32 SW10G20   29.71F
6HR MIN TEMP:  67; 6HR MAX TEMP:  71; 6HR PCP: TRACE;

PRAIRIE DU CHI PTSUNNY   68  35  30 W13       29.72F
PLATTEVILLE    MOSUNNY   66  39  36 W13       29.75F
$$

WIZ056-057-062-063-064-067-068-040100-
SOUTH CENTRAL WISCONSIN

CITY           SKY/WX    TMP DP  RH WIND       PRES   REMARKS
REEDSBURG      CLOUDY    64  37  37 SW10G16   29.69F
BARABOO/DELLS  CLOUDY    64  33  31 W8G17     29.69F
LONE ROCK      NOT AVBL
MINERAL POINT  MOSUNNY   64  34  32 W17G23    29.74F
MADISON        CLOUDY    64  37  36 VRB7      29.70F
6HR MIN TEMP:  63; 6HR MAX TEMP:  68;

MIDDLETON      CLOUDY    64  37  36 W15G24    29.72F
WATERTOWN      CLOUDY    63  40  42 SW9G20    29.71F
MONROE         CLOUDY    63  36  36 W22G29    29.75F
JANESVILLE     MOCLDY    64  37  36 W13G18    29.74F
$$

WIZ051-052-058>065-066-070>072-040100-
SOUTHEAST WISCONSIN

CITY           SKY/WX    TMP DP  RH WIND       PRES   REMARKS
MILWAUKEE      CLOUDY    65  34  31 W13       29.72F
6HR MIN TEMP:  64; 6HR MAX TEMP:  69;

WAUKESHA       PTCLDY    63  36  36 SW14G21   29.73F
MILWAUKEE/TIMM MOCLDY    64  32  29 W12G18    29.72F
RACINE         CLOUDY    65  36  34 W8        29.74F
6HR MIN TEMP:  64; 6HR MAX TEMP:  69;

BURLINGTON     CLOUDY    63  35  35 W13       29.74F
KENOSHA        CLOUDY    63  39  41 W9G21     29.74F
6HR MIN TEMP:  63; 6HR MAX TEMP:  69;

FOND DU LAC    CLOUDY    64  37  36 W15G24    29.68F
6HR MIN TEMP:  64; 6HR MAX TEMP:  69; 6HR PCP: TRACE;

SHEBOYGAN      CLOUDY    63  37  38 SW10      29.67F
6HR MIN TEMP:  63; 6HR MAX TEMP:  68;

WEST BEND      CLOUDY    63  34  34 SW12G17   29.70F
JUNEAU         CLOUDY    63  38  40 SW14G20   29.71F
$$

LSZ147-162-040100-
LAKE SUPERIOR

STATION/POSITION TIME  TEMP    WIND        PRES    WAVE
                       AIR SEA DIR/SP/G            HT/PER
                 (UTC) (F)     (DEG/KT/KT) (MB)    (FT/S)
W MID LAKE BUOY  2250   51 37  220/  6/  6 1005.3R   1/ 4
DEVILS ISLAND    2300   56     160/  1/  2 1005.6F
SAXON HARBOR     2300   49      70/  9/ 14 1005.1F
$$

LMZ867-665-643>646-040100-
LAKE MICHIGAN

STATION/POSITION TIME  TEMP    WIND        PRES    WAVE
                       AIR SEA DIR/SP/G            HT/PER
                 (UTC) (F)     (DEG/KT/KT) (MB)    (FT/S)
CHAMBERS ISLAND  2300   49     310/  3/  6 1006.1
N MID LAKE BUOY  2250   44 39  350/  8/ 10 1005.7R   3/ 4
NORTHPORT PIER   2300   47      CALM  /  2 1006.1R
ALGOMA LAKESHORE 2215          240/  7/  8   N/A
KEWAUNEE LAKESHO 2300   65                 1003.8F
SHEBOYGAN LAKESH 2300   66     230/ 19/ 22 1005.4F
PORT WASHINGTON  2340   67     240/  9/ 13 1006.1F
S MID LAKE BUOY  2250   46 42  170/ 14/ 14 1007.8F   1/ 3
KENOSHA   LAKESH 2300   66     250/ 12/ 19 1007.5F
$$

TC  - TEMPERATURE IN CELSIUS
VSB - VISIBILITY IN STATUTE MILES
WCI - WIND CHILL INDEX
HX  - HEAT INDEX





USA.gov is the U.S. government's official web portal to all federal, state and local government web resources and services.